Flag Weather past 2 weeks in Freital, Saxony, Germany

Now
47 °F

Fog.


Feels Like: 47 °F
Forecast: 40 / 55 °F
Wind: 2 mph from South

Location: Dresden-Klotzsche

Current Time: Oct 30, 2014 at 2:10:13 PM

Latest Report: Oct 30, 2014 at 1:00 PM


Visibility: 3 mi

Pressure: 30.29 "Hg

Humidity: 89%

Dew point: 44 °F

Location of FreitalLocation

Historic Weather in Freital — Graph

°F

Freital temperature yesterday

Maximum temperature yesterday: 49 °F (at 1:00 PM)
Minimum temperature yesterday: 38 °F (at 7:00 AM)
Average temperature yesterday: 42 °F

Past Weeks' High & Low Weather Summary

 TemperatureHumidityPressure
High70 °F (Oct 19, 4:00 PM)99% (Oct 22, 10:00 PM)30.39 "Hg (Oct 22, 10:00 PM)
Low36 °F (Oct 25, 7:00 AM)42% (Oct 28, 2:00 PM)29.47 "Hg (Oct 21, 11:00 PM)
Average51 °F83%30.06 "Hg
* Reported Oct 15 2:00 PM — Oct 30 1:00 PM, Freital, Weather by CustomWeather, © 2014

Note: Actual official high and low records may vary slightly from our data, if they occured in-between our weather recording intervals... More about our weather records

Advertising

Freital weather history for previous 24 hours

 ConditionsComfort  
Time TempWeatherWind HumidityBarometerVisibility
1:00 PM
Oct 30
47 °FFog.2 mph89%30.29 "Hg3 mi
12:00 PM46 °FLow clouds.2 mph90%30.29 "Hg2 mi
11:00 AM45 °FDrizzle. Low clouds.2 mph93%30.29 "Hg2 mi
9:00 AM45 °FFog.2 mph86%30.26 "Hg4 mi
8:00 AM44 °FFog.2 mph87%30.25 "Hg4 mi
7:00 AM43 °FOvercast.2 mph88%30.24 "Hg5 mi
6:00 AM43 °FOvercast.2 mph90%30.22 "Hg6 mi
5:00 AM42 °FPassing clouds.2 mph89%30.21 "Hg6 mi
3:00 AM42 °FOvercast.3 mph90%30.19 "Hg6 mi
2:00 AM42 °FOvercast.3 mph92%30.19 "Hg6 mi
1:00 AM40 °FOvercast.3 mph93%30.18 "Hg6 mi
12:00 AM41 °FOvercast.3 mph92%30.18 "Hg6 mi
11:00 PM
Oct 29
40 °FPassing clouds.5 mph92%30.16 "Hg6 mi
9:00 PM40 °FPassing clouds.3 mph90%30.15 "Hg6 mi
8:00 PM40 °FPassing clouds.5 mph92%30.14 "Hg6 mi
7:00 PM40 °FClear.5 mph89%30.13 "Hg7 mi
6:00 PM41 °FClear.5 mph87%30.10 "Hg6 mi
5:00 PM42 °FPassing clouds.5 mph83%30.09 "Hg6 mi
4:00 PM45 °FPassing clouds.5 mph77%30.09 "Hg7 mi
3:00 PM47 °FSunny.5 mph74%30.09 "Hg7 mi
2:00 PM49 °FSunny.3 mph69%30.08 "Hg7 mi
Weather by CustomWeather, © 2014

See weather overviewHow to use our weather pages